CT1AKV-10 Weather Reports


time (UTC)temp
F
wind
direction
speed
knots
gust
knots
rain 1hr
in
rain 24hr
in
rain mn
in
humidity
%
barometer
mb
20260503201503 57 128 2.6 5.2 0.00 0.00 0.00 83 1014.9
20260503200003 58 123 1.7 3.5 0.00 0.00 0.00 83 1014.6
20260503194503 59 115 2.6 5.2 0.00 0.00 0.00 81 1014.3
20260503193003 59 120 2.6 7.8 0.00 0.00 0.00 79 1014.3
20260503191503 60 119 3.5 6.1 0.00 0.00 0.00 78 1014.2
20260503190003 61 131 3.5 6.1 0.00 0.00 0.00 76 1013.8
20260503184503 61 125 3.5 9.6 0.00 0.00 0.00 73 1014.0
20260503183003 63 119 3.5 7.8 0.00 0.00 0.00 72 1013.5
20260503181504 63 149 4.3 11.3 0.00 0.00 0.00 72 1013.6
20260503180003 63 116 3.5 7.8 0.00 0.00 0.00 71 1013.7
20260503174503 64 105 3.5 7.8 0.00 0.00 0.00 67 1013.7
20260503173003 64 144 4.3 9.6 0.00 0.00 0.00 66 1013.5
20260503171503 64 141 4.3 12.2 0.00 0.00 0.00 67 1013.4
20260503081503 59 353 0.9 3.5 0.00 0.00 0.00 100 1015.0
20260503071503 55 10 0.9 3.5 0.00 0.00 0.00 100 1014.8
20260503054503 54 45 0.0 1.7 0.00 0.00 0.00 100 1014.4
20260503053003 55 43 0.0 1.7 0.00 0.00 0.00 100 1014.1
20260503051503 55 55 0.0 1.7 0.00 0.00 0.00 100 1014.3
20260503050003 54 53 0.0 3.5 0.00 0.00 0.00 100 1014.3
20260503044503 54 65 0.0 1.7 0.00 0.00 0.00 100 1014.2
20260503043003 54 357 0.9 3.5 0.00 0.00 0.00 100 1014.3
20260503041503 54 6 0.0 1.7 0.00 0.00 0.00 100 1014.2
20260503040003 54 350 0.9 3.5 0.00 0.00 0.00 100 1014.1
20260503034503 54 0 0.0 1.7 0.00 0.00 0.00 100 1014.4
20260503033003 54 0 0.0 0.0 0.00 0.00 0.00 100 1014.2
20260503031503 54 22 0.0 1.7 0.00 0.00 0.00 100 1014.6
20260503030003 54 37 0.0 1.7 0.00 0.00 0.00 100 1014.8
20260503024503 54 67 0.0 1.7 0.00 0.00 0.00 100 1014.4
20260503023003 54 0 0.0 0.0 0.00 0.00 0.00 100 1014.6
20260503021503 54 0 0.0 0.0 0.00 0.00 0.00 100 1014.8
20260503020003 53 0 0.0 0.0 0.00 0.00 0.00 100 1014.8
20260503014503 54 0 0.0 0.0 0.00 0.00 0.00 100 1014.9
20260503013003 54 0 0.0 0.0 0.00 0.00 0.00 97 1015.0
20260503011503 54 0 0.0 0.0 0.00 0.00 0.00 97 1015.1
20260503010003 54 0 0.0 1.7 0.00 0.00 0.00 97 1015.2
20260503004503 54 0 0.0 1.7 0.00 0.00 0.00 97 1015.3
20260503003003 54 0 0.0 0.0 0.00 0.00 0.00 96 1015.6
20260503001503 55 50 0.0 1.7 0.00 0.00 0.00 96 1015.5
20260503000003 55 75 0.0 1.7 0.00 0.00 0.00 96 1015.7
20260502234503 55 100 0.9 1.7 0.00 0.00 0.00 96 1015.7
20260502233003 56 93 0.9 3.5 0.00 0.00 0.00 95 1015.8
20260502231503 56 102 0.9 3.5 0.00 0.00 0.00 95 1015.8
20260502230004 56 95 1.7 3.5 0.00 0.00 0.00 95 1015.9
20260502224503 56 98 1.7 3.5 0.00 0.00 0.00 94 1015.8
20260502223003 57 107 1.7 3.5 0.00 0.00 0.00 94 1015.7
20260502221503 57 110 1.7 3.5 0.00 0.00 0.00 94 1015.8
20260502220003 58 97 1.7 3.5 0.00 0.00 0.00 93 1015.9
20260502214503 58 101 0.9 3.5 0.00 0.00 0.00 93 1015.9
20260502213003 59 94 0.9 3.5 0.00 0.00 0.00 92 1016.0
20260502211503 59 109 1.7 3.5 0.00 0.00 0.00 91 1016.1
20260502210003 60 101 1.7 3.5 0.00 0.00 0.00 90 1015.9
20260502204503 61 111 1.7 3.5 0.00 0.00 0.00 88 1015.7
20260502203003 61 109 1.7 3.5 0.00 0.00 0.00 87 1015.2